Weather History for KFSE - April, 2014

Change the Weather History Date:

Monday, April 14, 2014

  Actual Average Record
Temperature  
Mean Temperature 19 °F -  
Max Temperature 26 °F 52 °F 75 °F (1963)
Min Temperature 12 °F 29 °F 12 °F (2014)
Degree Days  
Heating Degree Days 46    
Moisture  
Dew Point 8 °F    
Average Humidity 59    
Maximum Humidity 79    
Minimum Humidity 40    
Precipitation  
Precipitation 0.00 in - - ()
Sea Level Pressure  
Sea Level Pressure 30.16 in    
Wind  
Wind Speed 15 mph (NNW)    
Max Wind Speed 22 mph    
Max Gust Speed 31 mph    
Visibility 10 miles    
Events Snow    
Averages and records for this station are not official NWS values.
T = Trace of Precipitation, MM = Missing Value Source: NWS Daily Summary

Daily Weather History Graph

Daily Weather History Graph

Search for Another Location

Airport or City:

Trip Planner

Search our weather history database for the weather conditions in past years. The results will help you decide how hot, cold, wet, or windy it might be!

Date:

Astronomy

Apr. 14, 2014 Rise Set
Actual Time 6:36 AM CDT 8:11 PM CDT
Civil Twilight 6:03 AM CDT 8:43 PM CDT
Nautical Twilight 5:24 AM CDT 9:23 PM CDT
Astronomical Twilight 4:42 AM CDT 10:06 PM CDT
Moon 7:50 PM CDT (4/14) 6:11 AM CDT (4/14)
Length of Visible Light 14h 39m
Length of Day
13h 35m
Full, 100% of the Moon is Illuminated
Apr 14
Full
Apr 15
Full
Apr 22
Last Quarter
Apr 29
New
May 6
First Quarter

Hourly Weather History & Observations

Time (CDT) Temp. Windchill Dew Point Humidity Pressure Visibility Wind Dir Wind Speed Gust Speed Precip Events Conditions
12:15 AM 21.2 °F 6.0 °F 8.6 °F 58% 30.16 in 10.0 mi North 19.6 mph 25.3 mph N/A   Clear
12:35 AM 19.4 °F 5.5 °F 8.6 °F 63% 30.16 in 10.0 mi NNW 15.0 mph - N/A   Clear
12:55 AM 19.4 °F 5.5 °F 8.6 °F 63% 30.17 in 10.0 mi North 15.0 mph - N/A   Clear
1:15 AM 19.4 °F 6.6 °F 8.6 °F 63% 30.17 in 10.0 mi North 12.7 mph 19.6 mph N/A   Clear
1:35 AM 19.4 °F 6.6 °F 8.6 °F 63% 30.17 in 10.0 mi North 12.7 mph - N/A   Clear
1:55 AM 19.4 °F 5.5 °F 8.6 °F 63% 30.17 in 10.0 mi North 15.0 mph - N/A   Clear
2:15 AM 19.4 °F 6.0 °F 8.6 °F 63% 30.17 in 10.0 mi NNW 13.8 mph 18.4 mph N/A   Clear
2:35 AM 19.4 °F 5.5 °F 8.6 °F 63% 30.16 in 10.0 mi NNW 15.0 mph - N/A   Clear
2:55 AM 17.6 °F 5.0 °F 8.6 °F 68% 30.16 in 10.0 mi NNW 11.5 mph - N/A   Clear
3:15 AM 17.6 °F 3.7 °F 6.8 °F 63% 30.15 in 10.0 mi North 13.8 mph - N/A   Clear
3:35 AM 17.6 °F 3.7 °F 6.8 °F 63% 30.14 in 10.0 mi NNW 13.8 mph - N/A   Clear
3:55 AM 17.6 °F 3.7 °F 6.8 °F 63% 30.14 in 10.0 mi NNW 13.8 mph - N/A   Clear
4:15 AM 17.6 °F 3.7 °F 8.6 °F 68% 30.14 in 10.0 mi North 13.8 mph - N/A   Clear
4:35 AM 17.6 °F 5.0 °F 8.6 °F 68% 30.13 in 10.0 mi North 11.5 mph - N/A   Clear
4:55 AM 17.6 °F 4.3 °F 8.6 °F 68% 30.13 in 10.0 mi North 12.7 mph - N/A   Clear
5:15 AM 15.8 °F 3.4 °F 8.6 °F 73% 30.13 in 10.0 mi NNW 10.4 mph - N/A   Clear
5:35 AM 15.8 °F 4.2 °F 6.8 °F 68% 30.13 in 10.0 mi NNW 9.2 mph - N/A   Clear
5:55 AM 15.8 °F 4.2 °F 6.8 °F 68% 30.14 in 10.0 mi NNW 9.2 mph - N/A   Clear
6:15 AM 15.8 °F 4.2 °F 6.8 °F 68% 30.14 in 10.0 mi NNW 9.2 mph - N/A   Clear
6:35 AM 15.8 °F 3.4 °F 6.8 °F 68% 30.14 in 10.0 mi NNW 10.4 mph - N/A   Clear
6:55 AM 15.8 °F 4.2 °F 6.8 °F 68% 30.15 in 10.0 mi NNW 9.2 mph - N/A   Clear
7:15 AM 17.6 °F 5.7 °F 6.8 °F 63% 30.16 in 10.0 mi NNW 10.4 mph - N/A   Mostly Cloudy
7:35 AM 19.4 °F 6.0 °F 6.8 °F 58% 30.16 in 10.0 mi North 13.8 mph - N/A   Overcast
7:55 AM 19.4 °F 6.6 °F 6.8 °F 58% 30.17 in 10.0 mi NNW 12.7 mph - N/A   Overcast
8:15 AM 19.4 °F 7.9 °F 5.0 °F 54% 30.17 in 10.0 mi North 10.4 mph - N/A   Overcast
8:35 AM 19.4 °F 5.0 °F 3.2 °F 49% 30.17 in 10.0 mi North 16.1 mph - N/A   Overcast
8:55 AM 21.2 °F 9.5 °F 5.0 °F 50% 30.18 in 10.0 mi North 11.5 mph - N/A   Scattered Clouds
9:15 AM 23.0 °F 11.1 °F 5.0 °F 46% 30.18 in 10.0 mi NNW 12.7 mph - N/A   Clear
9:35 AM 24.8 °F 11.9 °F 3.2 °F 40% 30.18 in 10.0 mi NNW 16.1 mph - N/A   Clear
9:55 AM 23.0 °F 9.2 °F 6.8 °F 50% 30.18 in 10.0 mi North 17.3 mph 20.7 mph N/A   Clear
10:15 AM 24.8 °F 12.4 °F 6.8 °F 46% 30.19 in 10.0 mi North 15.0 mph 23.0 mph N/A   Clear
10:35 AM 24.8 °F 11.9 °F 6.8 °F 46% 30.19 in 10.0 mi NNW 16.1 mph 20.7 mph N/A   Scattered Clouds
10:55 AM 24.8 °F 12.9 °F 8.6 °F 50% 30.18 in 10.0 mi NNW 13.8 mph - N/A   Scattered Clouds
11:15 AM 24.8 °F 11.9 °F 8.6 °F 50% 30.18 in 10.0 mi NW 16.1 mph 21.9 mph N/A   Mostly Cloudy
11:35 AM 24.8 °F 14.0 °F 8.6 °F 50% 30.18 in 10.0 mi NNW 11.5 mph - N/A   Mostly Cloudy
11:55 AM 26.6 °F 14.3 °F 10.4 °F 51% 30.18 in 10.0 mi NNW 16.1 mph 24.2 mph N/A   Mostly Cloudy
12:15 PM 24.8 °F 11.9 °F 8.6 °F 50% 30.17 in 10.0 mi NW 16.1 mph - N/A   Overcast
12:35 PM 26.6 °F 15.2 °F 10.4 °F 51% 30.17 in 10.0 mi NW 13.8 mph 21.9 mph N/A   Mostly Cloudy
12:55 PM 24.8 °F 11.1 °F 10.4 °F 54% 30.16 in 10.0 mi NW 18.4 mph 24.2 mph N/A   Mostly Cloudy
1:15 PM 26.6 °F 14.3 °F 10.4 °F 51% 30.16 in 10.0 mi NW 16.1 mph 24.2 mph N/A   Scattered Clouds
1:35 PM 24.8 °F 11.5 °F 12.2 °F 59% 30.16 in 10.0 mi NW 17.3 mph 24.2 mph N/A   Mostly Cloudy
1:55 PM 24.8 °F 10.7 °F 10.4 °F 54% 30.16 in 2.0 mi NW 19.6 mph 27.6 mph N/A Snow Light Snow
2:15 PM 26.6 °F 14.3 °F 8.6 °F 47% 30.16 in 10.0 mi NW 16.1 mph 25.3 mph N/A   Mostly Cloudy
2:35 PM 24.8 °F 10.0 °F 8.6 °F 50% 30.16 in 10.0 mi NW 21.9 mph 31.1 mph N/A   Mostly Cloudy
2:55 PM 24.8 °F 10.3 °F 8.6 °F 50% 30.16 in 10.0 mi NW 20.7 mph 29.9 mph N/A   Scattered Clouds
3:15 PM 24.8 °F 11.5 °F 10.4 °F 54% 30.16 in 10.0 mi NW 17.3 mph 26.5 mph N/A   Scattered Clouds
3:35 PM 24.8 °F 10.7 °F 8.6 °F 50% 30.16 in 10.0 mi NW 19.6 mph 24.2 mph N/A   Mostly Cloudy
3:55 PM 24.8 °F 10.7 °F 10.4 °F 54% 30.16 in 10.0 mi NW 19.6 mph 25.3 mph N/A   Mostly Cloudy
4:15 PM 24.8 °F 11.5 °F 10.4 °F 54% 30.15 in 10.0 mi NW 17.3 mph 24.2 mph N/A   Overcast
4:35 PM 24.8 °F 10.3 °F 10.4 °F 54% 30.16 in 10.0 mi WNW 20.7 mph 25.3 mph N/A   Overcast
4:55 PM 24.8 °F 11.1 °F 8.6 °F 50% 30.15 in 10.0 mi WNW 18.4 mph 27.6 mph N/A   Mostly Cloudy
5:15 PM 24.8 °F 10.3 °F 8.6 °F 50% 30.15 in 10.0 mi NW 20.7 mph 24.2 mph N/A   Mostly Cloudy
5:35 PM 24.8 °F 12.4 °F 8.6 °F 50% 30.15 in 10.0 mi NW 15.0 mph 27.6 mph N/A   Mostly Cloudy
5:55 PM 21.2 °F 6.4 °F 8.6 °F 58% 30.15 in 10.0 mi NW 18.4 mph 25.3 mph N/A   Scattered Clouds
6:15 PM 23.0 °F 8.7 °F 8.6 °F 54% 30.16 in 10.0 mi NW 18.4 mph 23.0 mph N/A   Mostly Cloudy
6:35 PM 23.0 °F 9.2 °F 6.8 °F 50% 30.16 in 10.0 mi NW 17.3 mph 26.5 mph N/A   Scattered Clouds
6:55 PM 21.2 °F 7.3 °F 8.6 °F 58% 30.16 in 10.0 mi NW 16.1 mph 24.2 mph N/A   Scattered Clouds
7:15 PM 21.2 °F 6.8 °F 6.8 °F 54% 30.16 in 10.0 mi NW 17.3 mph 24.2 mph N/A   Scattered Clouds
7:35 PM 19.4 °F 5.0 °F 6.8 °F 58% 30.16 in 10.0 mi NW 16.1 mph 21.9 mph N/A   Scattered Clouds
7:55 PM 17.6 °F 2.2 °F 5.0 °F 58% 30.16 in 10.0 mi NW 17.3 mph 23.0 mph N/A   Clear
8:15 PM 17.6 °F 2.2 °F 6.8 °F 63% 30.17 in 10.0 mi WNW 17.3 mph 20.7 mph N/A   Clear
8:35 PM 17.6 °F 4.3 °F 5.0 °F 58% 30.17 in 10.0 mi NW 12.7 mph 20.7 mph N/A   Clear
8:55 PM 15.8 °F 1.4 °F 6.8 °F 68% 30.17 in 10.0 mi NW 13.8 mph - N/A   Clear
9:16 PM 15.8 °F 2.1 °F 6.8 °F 68% 30.17 in 10.0 mi NW 12.7 mph - N/A   Scattered Clouds
9:35 PM 15.8 °F 0.9 °F 6.8 °F 68% 30.18 in 10.0 mi NW 15.0 mph 20.7 mph N/A   Scattered Clouds
9:55 PM 15.8 °F 2.1 °F 6.8 °F 68% 30.18 in 10.0 mi WNW 12.7 mph 18.4 mph N/A   Scattered Clouds
10:16 PM 15.8 °F 2.1 °F 6.8 °F 68% 30.18 in 10.0 mi NW 12.7 mph 17.3 mph N/A   Mostly Cloudy
10:35 PM 14.0 °F 0.5 °F 5.0 °F 67% 30.17 in 10.0 mi NW 11.5 mph - N/A   Clear
10:55 PM 14.0 °F 1.2 °F 5.0 °F 67% 30.17 in 10.0 mi NW 10.4 mph - N/A   Clear
11:16 PM 12.2 °F -1.0 °F 6.8 °F 79% 30.17 in 10.0 mi NW 10.4 mph - N/A   Scattered Clouds
11:35 PM 12.2 °F -0.2 °F 5.0 °F 73% 30.17 in 10.0 mi NW 9.2 mph - N/A   Clear
11:55 PM 12.2 °F -0.2 °F 6.8 °F 79% 30.17 in 10.0 mi NW 9.2 mph - N/A   Clear